Find Starlink 11552

NORAD ID: 62907 Int'l Des: 2025-027 Owner: SPXS Country: US Constellation: starlink operational
別名: STARLINK-11552 [DTC] celestrak
LEOCIRCULAR

現在のビュー

3D地球を読み込み中...

About Starlink 11552

Starlink 11552 (NORAD 62907) is a starlink constellation satellite (v2 mini d2c) launched Feb 8, 2025 by SPXS of US. It operates in LEO, CIRCULAR orbit with a mass of 960.00 kg.

次回通過

Passes for default location (London). Set your location on the main map for personalized predictions.

高度履歴

Loading altitude history...

軌道要素

1 62907U 25027A 26248.26613438 .00164044 00000-0 12522-2 0 9998
2 62907 42.9999 345.3453 0001123 243.9035 116.1717 15.70928698 91434
Epoch: Sep 5, 2026 • Age: 14 hours

現在のステータス

高度 358.6 km
遠地点 / 近地点 N/A
速度 7.70 km/s
衛星直下点 39.80°N, 165.31°E
打ち上げ日 Feb 8, 2025
運用期間 1.5 years
タイプ internet

技術仕様

分類 Payload
質量 960.00 kg
乾燥質量 910.00 kg
総質量 960.00 kg
長さ 0.30 m
直径 4.10 m
スパン 29.00 m
形状 Box + pan
製造者 SPXS
バスタイプ Starlink V2MD
フェーズステータス In Orbit
所有者/国 SPXS/US

Most Searched